Tracking 19651 objects as of 23-Apr-2019
HD Live streaming from Space Station
objects crossing your sky now

O3B FM20

Track O3B FM20 now!
10-day predictions
O3B FM20 is classified as:


NORAD ID: 44112
Int'l Code: 2019-020A
Perigee: 7,816.3 km
Apogee: 7,846.7 km
Inclination: 0.0 °
Period: 280.7 minutes
Semi major axis: 14202 km
RCS: Unknown
Launch date: April 4, 2019
Source: O3b Networks (O3B)
Launch site: FRENCH GUIANA (FRGUI)
aabbcc
Your satellite tracking list
Your tracking list is empty




NASA's NSSDC Master Catalog

Two Line Element Set (TLE):
1 44112U 19020A   19108.42732145 -.00000025  00000-0  00000+0 0  9998
2 44112   0.0365 330.6945 0010733 182.8532 142.8662  5.12927155   692
Source of the keplerian elements: AFSPC